Location: Bieg
(49.3499°N, 10.3835°E)
Time: 05:09:18
(UTC+00:00)

USA 267 - Pass Details

Date: 23 May 2024
Orbit: 1101 x 1106 km, 123.0° (Epoch: 01 May)

Event Time Altitude Azimuth Distance (km) Brightness Sun altitude
Rises 01:45:49 0° 67° (ENE) 3,930 7.3 -12.4°
Reaches altitude 10° 01:48:23 10° 62° (ENE) 2,972 6.6 -12.2°
Maximum altitude 01:54:38 49° 350° (N) 1,399 4.1 -11.6°
Drops below altitude 10° 02:00:52 10° 278° (W) 2,970 5.2 -10.9°
Enters shadow 02:05:11 -6° 271° (W) 4,596 6.1 -10.5°
